QPF
0.00 0.00 0.00 0.00 0.00 0.00 0.00 0.00 0.00 0.00 0.00 0.00 0.00 0.00 0.00 0.00 0.00 0.00 0.00 0.00 0.00 0.00 0.00 0.00 0.00 0.00 -0.00 0.00 -0.00 0.00 0.00 0.00 0.00 0.02 0.02 0.02 0.02 0.03 0.06 0.08 0.10 0.12 0.30 0.15 0.14 0.12 0.06 0.06 0.05 0.09 0.07 0.04 0.01 0.01 0.00 0.02 0.27 0.31 0.23 0.30 0.05 0.02 0.08
0.00 0.00 0.00 0.00 0.00 0.00 0.00 0.00 0.00 0.00 0.00 0.00 0.00 0.00 0.00 0.00 0.00 0.00 0.00 0.00 0.00 0.00 0.00 0.00 0.00 0.00 0.00 0.00 0.00 0.00 0.00 0.00 0.00 0.00 0.00 0.00 0.00 0.01 0.02 0.05 0.06 0.03 0.07 0.14 0.05 0.04 0.02 0.02 0.02 0.02 0.05 0.05 0.04 0.01 0.00 0.01 0.02 0.03 0.13 0.18 0.09 0.07 0.07
0.00 0.00 0.00 0.00 0.00 0.00 0.00 0.00 0.00 0.00 0.00 0.00 0.00 0.00 0.00 0.00 0.00 0.00 0.00 0.00 0.00 0.00 0.00 0.00 0.00 0.00 0.00 0.00 0.00 0.00 0.00 0.00 0.00 0.00 0.00 0.00 -0.00 0.00 -0.00 0.00 0.00 0.00 0.00 0.06 0.03 0.01 0.01 0.01 0.01 0.02 0.01 0.01 0.03 0.03 0.01 0.00 0.00 0.00 -0.00 0.01 0.02 0.02 0.02
0.00 0.00 0.00 0.00 0.00 0.00 0.00 0.00 0.00 0.00 0.00 0.00 0.00 0.00 0.00 0.00 0.00 0.00 0.00 0.00 0.00 0.00 0.00 0.00 0.00 0.00 0.00 0.00 0.00 0.00 0.00 0.00 0.00 0.00 0.00 0.00 0.00 0.00 0.00 0.00 0.00 -0.00 0.00 0.00 0.00 0.00 0.00 -0.00 -0.00 0.00 0.00 0.00 0.00 0.00 0.01 0.00 0.00 0.00 0.00 0.00 0.00 0.00 0.00
0.00 0.00 0.00 0.00 0.00 0.00 0.00 0.00 0.00 0.00 0.00 0.00 0.00 0.00 0.00 0.00 0.00 0.00 0.00 0.00 0.00 0.00 0.00 0.00 0.00 0.00 0.00 0.00 0.00 0.00 0.00 0.00 0.00 0.00 0.00 0.00 0.00 0.00 0.00 0.00 -0.00 0.00 0.00 0.00 -0.00 0.00 -0.00 0.00 0.00 -0.00 0.00 0.00 -0.00 0.00 0.00 0.00 0.00 0.00 0.00 0.00 0.00 0.00 0.00
0.00 0.00 0.00 0.00 0.00 0.00 0.00 0.00 0.00 0.00 0.00 0.00 0.00 0.00 0.00 0.00 0.00 0.00 0.00 0.00 0.00 0.00 0.00 0.00 0.00 0.00 0.00 0.00 0.00 0.00 0.00 0.00 0.00 0.00 0.00 0.00 0.00 0.00 0.00 0.00 0.00 0.00 0.00 0.00 0.00 -0.00 0.00 0.00 -0.00 -0.00 -0.00 -0.00 0.00 0.00 0.00 0.00 0.00 0.00 0.00 0.00 0.00 0.00 0.00
0.00 0.00 0.00 0.00 0.00 0.00 0.00 0.00 0.00 0.00 0.00 0.00 0.00 0.00 0.00 0.00 0.00 0.00 0.00 0.00 0.00 0.00 0.00 0.00 0.00 0.00 0.00 0.00 0.00 0.00 0.00 0.00 0.00 0.00 0.00 0.00 0.00 0.00 0.00 0.00 0.00 0.00 0.00 0.00 0.00 0.00 0.00 0.00 0.00 0.00 -0.00 0.00 0.00 0.00 0.00 0.00 0.00 0.00 0.00 0.00 0.00 0.00 0.00
0.00 0.00 0.00 0.00 0.00 0.00 0.00 0.00 0.00 0.00 0.00 0.00 0.00 0.00 0.00 0.00 0.00 0.00 0.00 0.00 0.00 0.00 0.00 0.00 0.00 0.00 0.00 0.00 0.00 0.00 0.00 0.00 0.00 0.00 0.00 0.00 0.00 0.00 0.00 0.00 0.00 0.00 0.00 0.00 0.00 0.00 0.00 0.00 0.00 0.00 0.00 0.00 0.00 0.00 0.00 0.00 0.00 0.00 0.00 0.00 0.00 0.00 0.00
0.00 0.00 0.00 0.00 0.00 0.00 0.00 0.00 0.00 0.00 0.00 0.00 0.00 0.00 0.00 0.00 0.00 0.00 0.00 0.00 0.00 0.00 0.00 0.00 0.00 0.00 0.00 0.00 0.00 0.00 0.00 0.00 0.00 0.00 0.00 0.00 0.00 0.00 0.00 0.00 0.00 0.00 0.00 0.00 0.00 0.00 0.00 0.00 0.00 0.00 0.00 -0.00 0.00 0.00 0.00 0.00 0.00 0.00 0.00 0.00 0.00 0.00 0.00
0.00 0.00 0.00 0.00 0.00 0.00 0.00 0.00 0.00 0.00 0.00 0.00 0.00 0.00 0.00 0.00 0.00 0.00 0.00 0.00 0.00 0.00 0.00 0.00 0.00 0.00 0.00 0.00 0.00 0.00 0.00 0.00 0.00 0.00 0.00 0.00 0.00 0.00 0.00 0.00 0.00 0.00 0.00 0.00 0.00 0.00 0.00 0.00 0.00 0.00 0.00 0.00 0.00 0.00 -0.00 0.00 0.00 0.00 0.00 0.00 0.00 0.00 0.00
0.00 0.00 0.00 0.00 0.00 0.00 0.00 0.00 0.00 0.00 0.00 0.00 0.00 0.00 0.00 0.00 0.00 0.00 0.00 0.00 0.00 0.00 0.00 0.00 0.00 0.00 0.00 0.00 0.00 0.00 0.00 0.00 0.00 0.00 0.00 0.00 0.00 0.00 0.00 0.00 0.00 0.00 0.00 0.00 0.00 0.00 0.00 0.00 0.00 0.00 0.00 0.00 0.00 0.00 0.00 0.00 0.00 0.00 0.00 0.00 0.00 0.00 0.00
0.00 0.00 0.00 0.00 0.00 0.00 0.00 0.00 0.00 0.00 0.00 0.00 0.00 0.00 0.00 0.00 0.00 0.00 0.00 0.00 0.00 0.00 0.00 0.00 0.00 0.00 0.00 0.00 0.00 0.00 0.00 0.00 0.00 0.00 0.00 0.00 0.00 0.00 0.00 0.00 0.00 0.00 0.00 0.00 0.00 0.00 0.00 0.00 0.00 0.00 0.00 0.00 0.00 0.00 0.00 0.00 -0.00 0.00 0.00 0.00 0.00 0.00 0.00
0.00 0.00 0.00 0.00 0.00 0.00 0.00 0.00 0.00 0.00 0.00 0.00 0.00 0.00 0.00 0.00 0.00 0.00 0.00 0.00 0.00 0.00 0.00 0.00 0.00 0.00 0.00 0.00 0.00 0.00 0.00 0.00 0.00 0.00 0.00 0.00 0.00 0.00 0.00 0.00 0.00 0.00 0.00 0.00 0.00 0.00 0.00 0.00 0.00 0.00 0.00 0.00 0.00 0.00 0.00 0.00 0.00 -0.00 0.00 0.00 0.00 0.00 0.00
0.01 0.01 0.00 0.00 0.01 0.03 0.01 0.00 0.00 0.00 0.00 0.00 0.00 0.00 0.00 0.00 0.00 0.00 0.00 0.00 0.00 0.00 0.00 0.00 0.00 0.00 0.00 0.00 0.00 0.00 0.00 0.00 0.00 0.00 0.00 0.00 0.00 0.00 0.00 0.00 0.00 0.00 0.00 0.00 0.00 0.00 0.00 0.00 0.00 0.00 0.00 0.00 -0.00 0.00 -0.00 0.00 0.00 0.00 0.00 0.00 0.00 0.00 0.00
0.05 0.05 0.02 0.00 0.03 0.00 0.01 0.01 0.00 0.00 0.00 0.02 0.00 0.00 0.00 0.00 0.00 0.00 0.00 0.00 0.00 0.00 0.00 0.00 0.00 0.00 0.00 0.00 0.00 0.00 0.00 0.00 0.00 0.00 0.00 0.00 0.00 0.00 0.00 0.00 0.00 0.00 0.00 0.00 0.00 0.00 0.00 0.00 0.00 0.00 0.00 0.00 0.00 0.00 0.00 -0.00 0.00 0.00 0.00 0.00 0.00 0.00 0.00
0.00 0.01 0.03 0.00 0.04 0.07 0.03 0.01 0.01 0.01 0.00 0.00 0.00 0.00 0.00 0.00 0.00 0.00 0.00 0.00 0.00 0.00 0.00 0.00 0.00 0.00 0.00 0.00 0.00 0.00 0.00 0.00 0.00 0.00 0.00 0.00 0.00 0.00 0.00 0.00 0.00 0.00 0.00 0.00 0.00 0.00 0.00 0.00 0.00 0.00 0.00 0.00 -0.00 -0.00 0.00 0.00 0.00 0.00 0.00 0.00 0.00 0.00 0.00
0.01 0.00 0.01 0.00 0.00 0.00 0.11 0.01 0.01 0.01 0.00 0.01 0.00 0.00 0.00 0.00 0.00 0.00 0.00 0.00 0.00 0.00 0.00 0.00 0.00 0.00 0.00 0.00 0.00 0.00 0.00 0.00 0.00 0.00 0.00 0.00 0.00 0.00 0.00 0.00 0.00 0.00 0.00 0.00 0.00 0.00 0.00 0.00 0.00 0.00 0.00 0.00 0.00 0.00 0.00 0.00 0.00 0.00 0.00 0.00 0.00 0.00 0.00
0.06 0.06 0.11 0.11 0.03 0.00 0.03 0.00 0.01 0.01 0.03 0.02 0.01 0.00 0.00 0.00 0.00 0.00 0.00 0.00 0.00 0.00 0.00 0.00 0.00 0.00 0.00 0.00 0.00 0.00 0.00 0.00 0.00 0.00 0.00 0.00 0.00 0.00 0.00 0.00 0.00 0.00 0.00 0.00 0.00 0.00 0.00 0.00 0.00 0.00 0.00 0.00 0.00 0.00 0.00 -0.00 0.00 0.00 -0.00 0.00 0.00 0.00 0.00
0.11 0.16 0.28 0.12 0.21 0.19 0.03 0.01 0.02 0.01 0.05 0.04 0.01 0.02 0.03 0.01 0.00 0.01 0.00 0.00 0.00 0.00 0.00 0.00 0.00 0.00 0.00 0.00 0.00 0.00 0.00 0.00 0.00 0.00 0.00 0.00 0.00 0.00 0.00 0.00 0.00 0.00 0.00 0.00 0.00 0.00 0.00 0.00 0.00 0.00 0.00 0.00 0.00 0.00 0.00 0.00 0.00 0.00 0.00 0.00 -0.00 0.00 0.00
0.01 0.09 0.04 0.09 0.12 0.11 0.00 0.00 0.01 0.01 0.01 0.02 0.03 0.03 0.03 0.01 0.00 0.00 0.01 0.00 0.00 0.00 0.00 0.00 0.00 0.00 0.00 0.00 0.00 0.00 0.00 0.00 0.00 0.00 0.00 0.00 0.00 0.00 0.00 0.00 0.00 0.00 0.00 0.00 0.00 0.00 0.00 0.00 0.00 0.00 0.00 0.00 0.00 0.00 0.00 0.00 0.00 0.00 0.00 0.00 0.00 0.00 0.00
0.00 0.00 0.00 0.00 0.00 0.02 0.02 0.02 0.02 0.04 0.02 0.02 0.01 0.01 0.05 0.04 0.01 0.02 0.00 0.00 0.00 0.00 0.00 0.00 0.00 0.00 0.00 0.00 0.00 0.00 0.00 0.00 0.00 0.00 0.00 0.00 0.00 0.00 0.00 0.00 0.00 0.00 0.00 0.00 0.00 0.00 0.00 0.00 0.00 0.00 0.00 0.00 0.00 0.00 0.00 0.00 0.00 0.00 0.00 0.00 0.00 0.00 0.00
0.01 0.02 0.01 0.00 0.00 0.01 0.00 0.01 0.02 0.02 0.01 0.01 0.01 0.02 0.01 0.02 0.03 0.05 0.01 0.00 0.00 0.00 0.00 0.00 0.00 0.00 0.00 0.00 0.00 0.00 0.00 0.00 0.00 0.00 0.00 0.00 0.00 0.00 0.00 0.00 0.00 0.00 0.00 0.00 0.00 0.00 0.00 0.00 0.00 0.00 0.00 0.00 0.00 0.00 0.00 0.00 0.00 0.00 0.00 -0.00 0.00 0.00 0.00
0.00 0.00 0.00 0.00 0.00 0.00 0.00 0.00 0.00 0.00 0.00 0.00 0.02 0.02 0.01 0.03 0.07 0.05 0.00 -0.00 0.00 0.00 0.00 0.01 0.02 0.02 0.01 0.00 0.00 0.00 0.00 0.00 0.00 0.00 0.00 0.00 0.00 0.00 0.00 0.00 0.00 0.00 0.00 0.00 0.00 0.00 0.00 0.00 0.00 0.00 0.00 0.00 0.00 0.00 0.00 0.00 0.00 0.00 0.00 0.00 0.00 0.00 -0.00
0.00 0.00 0.00 0.00 0.00 0.00 0.00 0.00 0.00 0.00 0.00 0.00 0.00 0.02 0.01 0.01 0.02 0.04 0.13 0.05 0.02 0.00 0.00 0.05 0.01 0.00 0.00 0.00 0.00 0.00 0.00 0.00 0.00 0.00 0.00 0.00 0.00 0.00 0.00 0.00 0.00 0.00 0.00 0.00 0.00 0.00 0.00 0.00 0.00 0.00 0.00 0.00 0.00 0.00 0.00 0.00 0.00 0.00 0.00 0.00 0.00 0.00 -0.00
0.00 0.00 0.00 0.00 0.00 0.00 0.00 0.00 0.00 0.00 0.00 0.00 0.00 0.00 0.01 0.00 0.01 0.03 0.05 0.05 0.07 0.04 0.01 0.00 0.02 0.03 0.00 0.00 0.00 0.05 0.00 0.00 0.00 0.00 0.00 0.00 0.00 0.00 0.00 0.00 0.00 0.00 0.00 0.00 0.00 0.00 0.00 0.00 0.00 0.00 0.00 0.00 0.00 0.00 0.00 0.00 0.00 0.00 0.00 0.00 0.00 0.00 0.00
0.00 0.00 0.00 0.00 0.00 0.00 0.00 0.00 0.00 0.00 0.00 0.00 0.00 0.00 0.00 0.00 0.01 0.01 0.01 0.05 0.03 0.08 0.09 0.15 0.27 0.09 0.02 0.00 0.00 0.00 0.00 0.00 0.00 0.00 0.00 0.00 0.00 0.00 0.00 0.00 0.00 0.00 0.00 0.00 0.00 0.00 0.00 0.00 0.00 0.00 0.00 0.00 0.00 0.00 0.00 0.00 0.00 0.00 0.00 0.00 0.00 0.00 0.00
0.00 0.00 0.00 0.00 0.00 0.00 0.00 0.00 0.00 0.00 0.00 0.00 0.00 0.00 0.00 0.00 0.00 0.00 0.00 0.00 0.00 0.00 0.04 0.00 0.00 0.00 0.00 0.00 0.00 0.00 0.00 0.00 0.00 0.00 0.00 0.00 0.00 0.00 0.00 0.00 0.00 0.00 0.00 0.00 0.00 0.00 0.00 0.00 0.00 0.00 0.00 0.00 0.00 0.00 0.00 0.00 0.00 0.00 0.00 0.00 0.00 0.00 0.00
0.00 0.00 0.00 0.00 0.00 0.00 0.00 0.00 0.00 0.00 -0.00 0.00 0.00 0.01 0.01 0.00 0.00 0.00 0.01 0.01 0.01 0.00 -0.00 0.00 0.00 0.00 0.00 0.00 0.00 0.00 0.00 0.00 0.00 0.00 0.00 0.00 0.00 0.00 0.00 0.00 0.00 0.00 0.00 0.00 0.00 0.00 0.00 0.00 0.00 0.00 0.00 0.00 0.00 0.00 0.00 0.00 0.00 0.00 0.00 0.00 0.00 0.00 0.00
0.00 0.00 0.00 0.00 0.00 0.00 0.00 0.00 0.00 0.00 0.00 -0.00 0.00 0.00 0.00 0.00 0.01 0.00 0.00 0.00 0.00 0.00 0.00 0.00 0.00 0.00 0.00 0.00 0.00 0.00 0.00 0.00 0.00 0.00 0.00 0.00 0.00 0.00 0.00 0.00 0.00 0.00 0.00 0.00 0.00 0.00 0.00 0.00 0.00 0.00 0.00 0.00 0.00 0.00 0.00 0.00 0.00 0.00 0.00 0.00 0.00 0.00 0.00
0.00 0.00 0.00 0.00 0.00 -0.00 -0.00 0.00 0.00 0.00 0.00 0.00 0.00 0.00 0.01 0.01 0.01 0.02 0.01 0.00 0.01 0.00 -0.00 0.00 0.00 0.00 0.00 0.00 0.00 0.00 0.00 0.00 0.00 0.00 0.00 0.00 0.00 0.00 0.00 0.00 0.00 0.00 0.00 0.00 0.00 0.00 0.00 0.00 0.00 0.00 0.00 0.00 0.00 0.00 0.00 0.00 0.00 0.00 0.00 0.00 0.00 0.00 0.00
0.00 -0.00 0.00 -0.00 -0.00 0.00 0.00 0.00 0.00 -0.00 0.00 0.00 0.00 0.00 0.00 0.02 0.02 0.01 0.01 0.01 0.01 0.00 0.00 0.00 0.00 0.00 0.00 0.00 0.00 0.00 0.00 0.00 0.00 0.00 0.00 0.00 0.00 0.00 0.00 0.00 0.00 0.00 0.00 0.00 0.00 0.00 0.00 0.00 0.00 0.00 0.00 0.00 0.00 0.00 0.00 0.00 0.00 0.00 0.00 0.00 0.00 0.00 0.00
0.00 0.00 -0.00 0.00 0.00 0.00 -0.00 0.00 0.00 -0.00 0.00 0.00 0.00 0.01 0.00 0.01 0.01 0.01 0.00 0.01 0.00 0.00 -0.00 0.00 0.00 0.00 0.00 0.00 0.00 0.00 0.00 0.00 0.00 0.00 0.00 0.00 0.00 0.00 0.00 0.00 0.00 0.00 0.00 0.00 0.00 0.00 0.00 0.00 0.00 0.00 0.00 0.00 0.00 0.00 0.00 0.00 0.00 0.00 0.00 0.00 0.00 0.00 -0.00
-0.00 0.00 0.00 0.00 -0.00 0.00 0.00 0.00 0.00 0.00 0.00 0.00 0.00 0.01 0.01 0.01 0.01 0.01 0.00 0.01 0.01 0.00 0.00 0.00 0.00 0.00 0.00 0.00 0.00 0.02 0.19 0.00 0.00 0.00 0.00 0.00 0.00 0.00 0.00 0.00 0.00 0.00 0.00 0.00 0.00 0.00 0.00 0.00 0.00 0.00 0.00 -0.00 0.00 0.00 0.00 0.00 0.00 -0.00 0.00 -0.00 0.00 0.00 0.00
0.00 -0.00 0.00 0.00 0.00 0.00 0.00 0.00 0.00 0.00 0.00 0.01 0.02 0.02 0.00 0.01 0.01 0.00 0.00 0.00 0.01 0.03 0.03 0.00 0.00 0.00 0.00 0.00 0.00 0.00 0.01 0.00 0.00 0.00 0.00 0.00 0.00 0.00 0.00 0.00 0.00 0.00 0.00 0.00 0.00 0.00 0.00 0.00 0.00 0.00 0.00 0.00 0.00 0.00 0.00 -0.00 0.00 0.00 0.00 0.00 0.00 0.00 -0.00
-0.00 0.00 0.00 0.00 0.00 0.00 0.00 0.00 0.00 0.00 0.01 0.01 0.01 0.03 0.01 0.01 0.00 0.00 0.02 0.05 0.04 0.01 0.00 0.00 0.00 0.00 0.00 0.00 0.00 0.00 0.00 0.00 0.00 0.00 0.00 0.00 0.00 0.00 0.00 0.00 0.00 0.00 0.00 0.00 0.00 0.00 0.00 0.00 0.00 0.00 -0.00 0.00 0.00 0.00 0.00 0.00 0.00 0.00 0.00 0.00 0.00 -0.00 0.00
-0.00 0.00 0.00 0.00 0.00 0.00 0.00 0.00 0.01 0.01 0.00 0.01 0.01 0.00 0.00 0.01 0.01 0.04 0.00 0.00 0.00 0.00 0.00 0.00 0.00 0.00 0.00 0.00 0.00 0.00 0.00 0.00 0.00 0.00 0.00 0.00 0.00 0.00 0.00 0.00 0.00 0.00 0.00 0.00 0.00 0.00 0.00 0.00 0.00 0.00 0.00 0.00 0.00 0.00 0.00 0.00 0.00 0.00 0.00 0.00 0.00 0.00 0.00
0.00 0.00 0.00 0.00 0.00 0.00 0.02 0.01 0.01 0.02 0.01 0.01 0.02 0.04 0.03 0.03 0.00 0.00 0.05 0.01 0.02 0.00 0.01 0.00 0.00 0.00 0.00 0.00 0.00 0.00 0.00 0.00 0.00 0.00 0.00 0.00 0.00 0.00 0.00 0.00 0.00 0.00 0.00 0.00 0.00 0.00 0.00 0.00 0.00 0.00 0.00 0.00 0.00 0.00 0.00 0.00 0.00 0.00 0.00 0.00 0.00 0.00 0.00
MSLP
1015.43 1015.83 1015.91 1015.99 1015.99 1016.15 1016.43 1016.51 1016.55 1016.67 1016.55 1016.55 1016.67 1016.63 1016.63 1016.63 1016.71 1016.79 1016.75 1016.71 1016.55 1016.43 1016.39 1016.59 1016.71 1016.71 1016.71 1016.79 1016.99 1016.91 1016.83 1017.07 1017.23 1017.59 1017.79 1018.07 1018.11 1018.51 1018.39 1018.51 1018.63 1018.87 1018.95 1018.95 1019.15 1020.11 1020.23 1020.23 1019.31 1018.59 1018.39 1018.23 1017.91 1017.75 1017.51 1017.35 1017.35 1017.47 1017.51 1017.51 1017.55 1017.51 1017.07
1015.31 1015.63 1015.67 1015.87 1016.11 1016.27 1016.51 1016.51 1016.51 1016.59 1016.71 1016.71 1016.75 1016.91 1016.91 1016.99 1017.07 1017.15 1017.11 1017.07 1016.95 1016.79 1016.67 1016.87 1017.07 1017.15 1017.31 1017.43 1017.43 1017.55 1017.63 1017.67 1017.59 1017.55 1017.55 1017.71 1017.75 1018.11 1018.39 1018.51 1018.47 1018.63 1018.75 1018.99 1019.11 1019.23 1019.79 1019.75 1019.39 1019.19 1018.99 1018.35 1018.19 1017.95 1017.71 1017.35 1017.27 1017.23 1017.23 1017.39 1017.23 1017.27 1017.43
1015.31 1015.47 1015.55 1016.03 1016.27 1016.39 1016.63 1016.71 1016.75 1016.83 1016.95 1017.07 1017.03 1017.07 1017.15 1017.23 1017.35 1017.35 1017.39 1017.47 1017.43 1017.35 1017.31 1017.43 1017.55 1017.67 1017.71 1017.79 1017.83 1017.87 1017.87 1017.95 1017.91 1017.99 1018.07 1017.91 1017.75 1017.91 1017.83 1017.99 1018.07 1018.11 1018.35 1018.91 1019.11 1018.63 1018.51 1018.59 1019.03 1018.95 1018.51 1018.55 1018.71 1018.15 1017.71 1017.59 1017.27 1016.91 1016.75 1016.79 1017.11 1017.15 1016.71
1015.31 1015.51 1015.83 1016.19 1016.23 1016.43 1016.67 1016.75 1016.75 1016.83 1016.87 1017.11 1017.27 1017.39 1017.35 1017.47 1017.55 1017.55 1017.63 1017.67 1017.67 1017.63 1017.59 1017.59 1017.63 1017.71 1017.87 1017.99 1018.03 1018.07 1018.19 1018.23 1018.31 1018.35 1018.35 1018.35 1018.23 1018.31 1018.15 1018.07 1018.23 1018.39 1018.71 1018.71 1018.71 1018.55 1018.79 1018.79 1018.71 1018.43 1018.23 1017.87 1017.91 1018.03 1017.51 1017.27 1017.11 1016.91 1016.99 1016.79 1016.79 1016.87 1016.35
1015.19 1015.47 1015.79 1016.07 1016.23 1016.43 1016.55 1016.67 1016.63 1016.79 1017.03 1017.15 1017.31 1017.51 1017.63 1017.63 1017.75 1017.83 1017.83 1017.83 1017.87 1017.91 1017.91 1017.79 1017.79 1017.83 1017.87 1017.91 1018.03 1018.15 1018.31 1018.35 1018.39 1018.47 1018.67 1018.83 1018.75 1018.59 1018.67 1018.59 1018.63 1018.59 1018.59 1018.67 1018.71 1018.83 1018.91 1018.87 1018.99 1018.87 1018.47 1017.87 1017.67 1017.47 1017.07 1017.07 1016.83 1016.83 1016.87 1016.63 1016.27 1016.11 1015.95
1015.11 1015.27 1015.51 1015.79 1015.87 1016.11 1016.27 1016.43 1016.59 1016.83 1017.03 1017.23 1017.35 1017.55 1017.71 1017.71 1017.75 1017.91 1017.91 1017.99 1018.11 1018.11 1018.11 1018.11 1018.19 1018.11 1018.11 1018.15 1018.27 1018.39 1018.47 1018.55 1018.71 1018.79 1018.95 1019.15 1019.19 1019.23 1019.19 1018.87 1018.71 1018.67 1018.87 1018.99 1018.99 1018.99 1018.91 1018.99 1018.99 1018.91 1018.27 1017.95 1018.51 1018.27 1017.55 1017.11 1017.03 1016.39 1015.99 1015.95 1015.75 1015.63 1015.43
1014.95 1015.11 1015.27 1015.47 1015.59 1015.59 1015.79 1016.11 1016.31 1016.51 1016.83 1017.07 1017.23 1017.43 1017.55 1017.55 1017.59 1017.71 1017.87 1017.99 1018.11 1018.19 1018.27 1018.35 1018.31 1018.23 1018.15 1018.15 1018.43 1018.55 1018.63 1018.67 1018.71 1018.79 1018.95 1019.07 1019.15 1019.23 1019.23 1019.19 1019.19 1019.03 1019.07 1019.03 1019.15 1019.03 1018.91 1018.99 1019.11 1019.11 1018.99 1018.59 1018.43 1018.31 1017.55 1017.19 1016.67 1016.67 1015.91 1015.23 1014.99 1014.91 1014.71
1014.59 1014.83 1014.95 1015.07 1015.35 1015.43 1015.51 1015.79 1015.87 1016.07 1016.43 1016.71 1016.99 1017.19 1017.39 1017.47 1017.63 1017.75 1017.87 1018.03 1018.15 1018.23 1018.31 1018.39 1018.39 1018.43 1018.39 1018.35 1018.55 1018.75 1018.75 1018.83 1018.91 1018.95 1019.11 1019.19 1019.31 1019.35 1019.39 1019.39 1019.23 1019.03 1019.27 1019.07 1019.11 1019.07 1018.87 1018.83 1018.99 1019.11 1019.31 1019.35 1018.79 1018.31 1017.95 1017.35 1017.15 1016.91 1016.47 1015.51 1014.83 1014.75 1014.51
1014.15 1014.43 1014.59 1014.67 1015.03 1015.15 1015.31 1015.59 1015.71 1015.83 1015.99 1016.31 1016.67 1017.03 1017.35 1017.43 1017.67 1017.83 1017.91 1017.99 1018.07 1018.19 1018.23 1018.31 1018.31 1018.39 1018.55 1018.59 1018.75 1018.91 1019.03 1018.99 1019.11 1019.11 1019.11 1019.23 1019.43 1019.43 1019.43 1019.43 1019.23 1019.23 1019.31 1019.35 1019.15 1019.15 1019.19 1019.23 1019.11 1018.99 1019.07 1019.23 1019.35 1019.03 1018.23 1018.11 1017.59 1017.31 1016.59 1016.59 1015.59 1014.87 1014.67
1013.99 1014.19 1014.39 1014.55 1014.79 1014.95 1015.11 1015.39 1015.51 1015.59 1015.67 1015.99 1016.35 1016.75 1017.15 1017.31 1017.51 1017.71 1017.83 1017.95 1018.07 1018.11 1018.23 1018.27 1018.35 1018.47 1018.55 1018.63 1018.83 1019.03 1019.07 1019.07 1019.11 1019.27 1019.23 1019.27 1019.39 1019.35 1019.43 1019.43 1019.31 1019.19 1019.23 1019.35 1019.23 1019.27 1019.31 1019.27 1019.19 1019.03 1018.91 1019.03 1019.15 1019.31 1019.07 1018.59 1017.99 1017.71 1017.03 1016.83 1017.07 1015.99 1015.35
1013.87 1013.99 1014.07 1014.31 1014.55 1014.87 1015.07 1015.23 1015.31 1015.51 1015.63 1015.79 1016.11 1016.51 1016.79 1017.07 1017.35 1017.55 1017.71 1017.91 1018.03 1018.07 1018.15 1018.19 1018.27 1018.43 1018.51 1018.63 1018.83 1018.83 1018.99 1019.11 1019.23 1019.27 1019.27 1019.31 1019.35 1019.35 1019.43 1019.35 1019.35 1019.15 1019.31 1019.35 1019.35 1019.43 1019.39 1019.39 1019.31 1019.19 1018.99 1018.75 1018.75 1019.15 1019.07 1019.19 1018.59 1017.91 1017.63 1016.91 1016.79 1016.71 1016.19
1013.75 1013.87 1013.95 1014.03 1014.31 1014.75 1014.99 1015.07 1015.23 1015.35 1015.47 1015.63 1015.95 1016.35 1016.67 1016.87 1017.11 1017.31 1017.47 1017.71 1017.87 1018.03 1018.11 1018.19 1018.27 1018.35 1018.39 1018.59 1018.75 1018.83 1019.03 1019.03 1019.03 1019.23 1019.31 1019.43 1019.47 1019.39 1019.51 1019.47 1019.35 1019.19 1019.23 1019.27 1019.27 1019.23 1019.23 1019.23 1019.23 1019.11 1018.99 1018.91 1018.87 1018.99 1019.15 1019.23 1019.19 1017.99 1017.55 1017.59 1017.07 1016.79 1016.75
1013.71 1013.87 1014.03 1014.19 1014.35 1014.63 1014.83 1015.11 1015.11 1015.31 1015.47 1015.55 1015.75 1016.07 1016.31 1016.55 1016.79 1017.03 1017.15 1017.39 1017.63 1017.79 1017.95 1018.07 1018.15 1018.27 1018.39 1018.51 1018.63 1018.67 1018.83 1018.95 1018.99 1019.19 1019.23 1019.27 1019.31 1019.43 1019.55 1019.51 1019.51 1019.39 1019.35 1019.27 1018.99 1018.99 1019.11 1019.11 1019.19 1019.27 1019.19 1019.19 1019.15 1019.07 1019.11 1019.23 1019.19 1018.83 1017.99 1017.83 1017.55 1017.27 1016.91
1013.87 1014.31 1014.55 1014.35 1014.43 1014.59 1014.75 1014.87 1014.95 1015.15 1015.23 1015.47 1015.59 1015.91 1016.03 1016.19 1016.39 1016.63 1016.83 1017.03 1017.31 1017.51 1017.71 1017.91 1017.95 1018.07 1018.19 1018.39 1018.43 1018.55 1018.79 1018.83 1018.91 1018.91 1019.03 1019.31 1019.35 1019.43 1019.39 1019.35 1019.39 1019.47 1019.55 1019.55 1019.27 1019.07 1018.95 1018.95 1018.99 1019.03 1019.03 1019.11 1019.19 1019.11 1019.15 1019.15 1019.15 1018.79 1018.19 1017.71 1017.63 1017.47 1017.15
1013.83 1013.99 1014.35 1014.83 1014.59 1014.75 1015.03 1015.03 1015.03 1014.95 1015.11 1015.27 1015.39 1015.63 1015.71 1015.83 1015.99 1016.23 1016.43 1016.67 1016.91 1017.11 1017.35 1017.55 1017.67 1017.83 1017.95 1018.19 1018.31 1018.55 1018.71 1018.75 1018.79 1018.83 1019.07 1019.11 1019.15 1019.39 1019.51 1019.47 1019.27 1019.43 1019.51 1019.59 1019.55 1019.27 1018.71 1018.67 1018.55 1018.51 1018.39 1018.47 1018.55 1018.71 1018.75 1019.07 1019.03 1018.99 1018.75 1018.23 1017.95 1017.47 1017.35
1013.95 1014.15 1014.35 1014.39 1015.07 1015.27 1014.99 1014.99 1015.07 1014.95 1014.87 1014.99 1015.11 1015.35 1015.47 1015.55 1015.67 1015.83 1016.07 1016.23 1016.47 1016.71 1016.95 1017.19 1017.39 1017.55 1017.71 1017.95 1018.19 1018.43 1018.51 1018.59 1018.71 1018.91 1019.11 1019.07 1018.99 1019.11 1019.43 1019.39 1019.39 1019.39 1019.55 1019.67 1019.63 1019.47 1019.31 1019.15 1018.87 1018.63 1018.71 1018.67 1018.75 1018.83 1018.79 1018.83 1018.99 1018.99 1018.87 1018.55 1018.15 1017.87 1017.43
1013.87 1013.99 1014.11 1014.15 1014.47 1014.87 1015.39 1014.87 1014.87 1015.07 1014.79 1014.63 1014.83 1015.07 1015.27 1015.47 1015.47 1015.55 1015.71 1015.91 1016.07 1016.31 1016.55 1016.75 1017.07 1017.23 1017.39 1017.67 1017.91 1018.15 1018.31 1018.43 1018.59 1018.75 1018.87 1018.91 1018.91 1019.07 1019.19 1019.35 1019.35 1019.47 1019.51 1019.59 1019.51 1019.43 1019.31 1019.19 1019.15 1018.95 1018.83 1018.67 1018.63 1018.59 1018.51 1018.55 1018.59 1018.67 1018.55 1018.47 1017.99 1017.83 1017.39
1014.19 1014.47 1014.91 1014.91 1014.19 1014.07 1014.35 1014.27 1014.63 1014.87 1015.07 1014.75 1014.71 1014.83 1014.91 1015.11 1015.35 1015.35 1015.43 1015.51 1015.63 1015.83 1016.03 1016.27 1016.67 1016.95 1017.11 1017.39 1017.63 1017.83 1018.07 1018.23 1018.43 1018.59 1018.71 1018.83 1018.99 1019.15 1019.19 1019.39 1019.31 1019.31 1019.47 1019.59 1019.55 1019.47 1019.23 1019.35 1019.31 1019.23 1019.11 1018.87 1018.67 1018.43 1018.39 1018.39 1018.35 1018.27 1018.23 1018.19 1017.91 1017.63 1017.39
1014.35 1014.59 1014.71 1014.99 1015.35 1015.07 1014.35 1014.23 1014.19 1014.35 1014.55 1014.63 1014.59 1014.75 1014.79 1014.75 1014.91 1015.07 1015.03 1015.03 1015.11 1015.39 1015.67 1015.95 1016.35 1016.71 1016.95 1017.31 1017.51 1017.71 1017.91 1018.07 1018.31 1018.47 1018.63 1018.87 1018.99 1019.15 1019.31 1019.27 1019.31 1019.43 1019.47 1019.55 1019.51 1019.51 1019.59 1019.59 1019.51 1019.43 1019.31 1019.15 1018.95 1018.79 1018.75 1018.63 1018.51 1018.35 1018.19 1017.91 1017.71 1017.47 1017.19
1014.39 1014.31 1014.39 1014.91 1015.03 1014.51 1014.23 1014.23 1014.03 1014.11 1014.27 1014.35 1014.35 1014.39 1014.43 1014.59 1014.59 1014.67 1014.67 1014.75 1014.87 1015.03 1015.35 1015.71 1016.11 1016.43 1016.71 1017.11 1017.43 1017.71 1017.95 1018.07 1018.31 1018.43 1018.55 1018.75 1018.87 1019.03 1019.19 1019.23 1019.31 1019.43 1019.51 1019.59 1019.63 1019.63 1019.63 1019.67 1019.67 1019.59 1019.51 1019.39 1019.11 1018.95 1018.83 1018.63 1018.47 1018.31 1018.15 1017.95 1017.67 1017.43 1017.15
1013.83 1013.87 1013.75 1013.67 1013.51 1013.59 1013.83 1013.95 1013.95 1013.87 1014.03 1014.51 1014.15 1013.91 1014.11 1014.43 1014.55 1014.59 1014.51 1014.43 1014.59 1014.83 1015.19 1015.43 1015.75 1016.11 1016.51 1016.91 1017.31 1017.63 1017.91 1018.15 1018.31 1018.47 1018.67 1018.79 1018.91 1019.07 1019.19 1019.23 1019.31 1019.35 1019.47 1019.51 1019.79 1019.87 1019.95 1019.99 1019.91 1019.91 1019.71 1019.63 1019.47 1019.35 1019.11 1018.79 1018.55 1018.31 1018.07 1017.79 1017.51 1017.27 1017.03
1013.79 1013.87 1013.95 1013.95 1013.83 1013.79 1013.67 1013.55 1013.67 1013.79 1013.95 1014.03 1013.95 1013.71 1013.67 1013.99 1014.67 1015.15 1014.27 1014.11 1014.31 1014.67 1014.99 1015.23 1015.39 1015.83 1016.27 1016.71 1017.15 1017.63 1017.91 1018.19 1018.35 1018.47 1018.67 1018.79 1018.91 1019.11 1019.11 1019.19 1019.27 1019.23 1019.59 1020.15 1020.35 1020.59 1020.71 1020.83 1020.63 1020.31 1019.99 1019.87 1019.79 1019.67 1019.39 1019.07 1018.71 1018.35 1017.99 1017.75 1017.43 1017.11 1016.87
1013.31 1013.43 1013.59 1013.63 1013.51 1013.43 1013.43 1013.43 1013.39 1013.47 1013.55 1013.55 1013.63 1013.71 1013.79 1014.07 1014.51 1014.75 1013.95 1013.87 1014.07 1014.43 1014.79 1015.11 1015.23 1015.59 1015.91 1016.35 1016.83 1017.23 1017.67 1017.99 1018.23 1018.31 1018.51 1018.59 1018.87 1018.99 1019.03 1019.03 1019.19 1019.63 1019.91 1020.11 1020.39 1020.67 1020.83 1020.91 1021.03 1020.87 1020.59 1020.43 1020.31 1020.15 1019.91 1019.59 1019.19 1018.75 1018.39 1018.03 1017.59 1017.27 1016.99
1013.23 1013.27 1013.15 1013.23 1013.27 1013.23 1013.23 1013.23 1013.27 1013.27 1013.27 1013.39 1013.43 1013.59 1013.67 1013.95 1014.23 1013.79 1013.87 1013.95 1014.19 1014.39 1014.79 1015.47 1015.71 1015.71 1015.99 1016.31 1016.63 1016.99 1017.39 1017.79 1018.07 1018.19 1018.35 1018.47 1018.63 1018.83 1018.91 1018.95 1018.99 1019.47 1019.75 1019.99 1020.19 1020.47 1020.59 1020.79 1020.79 1020.83 1020.95 1020.91 1020.91 1020.83 1020.59 1020.23 1019.79 1019.39 1018.99 1018.47 1017.95 1017.67 1017.27
1013.27 1013.19 1013.19 1013.15 1013.03 1013.03 1013.11 1013.15 1013.23 1013.19 1013.23 1013.27 1013.39 1013.35 1013.47 1013.55 1013.55 1013.79 1014.47 1014.47 1014.71 1014.75 1015.19 1016.03 1016.15 1016.07 1016.15 1016.39 1016.67 1017.03 1017.35 1017.67 1018.03 1018.15 1018.23 1018.35 1018.43 1018.51 1018.59 1018.67 1018.79 1018.95 1019.23 1019.39 1019.47 1019.75 1020.23 1020.43 1020.43 1020.55 1020.63 1020.67 1020.75 1020.75 1020.71 1020.55 1020.27 1019.87 1019.43 1018.91 1018.43 1017.99 1017.67
1013.19 1013.19 1013.19 1013.15 1013.11 1013.15 1013.19 1013.19 1013.23 1013.23 1013.23 1013.27 1013.35 1013.51 1013.55 1013.55 1013.63 1013.91 1014.39 1014.59 1014.79 1015.07 1015.79 1016.43 1016.39 1016.35 1016.55 1016.59 1016.79 1016.95 1017.19 1017.63 1017.91 1017.95 1018.03 1018.19 1018.23 1018.27 1018.31 1018.43 1018.59 1018.79 1018.83 1019.19 1019.47 1019.43 1019.35 1019.39 1019.87 1020.15 1020.23 1020.31 1020.31 1020.31 1020.27 1020.31 1020.31 1020.11 1019.63 1019.35 1018.99 1018.55 1018.31
1013.19 1013.19 1013.19 1013.15 1013.11 1013.07 1013.15 1013.15 1013.11 1013.11 1013.11 1013.15 1013.39 1013.59 1013.67 1013.79 1013.83 1014.03 1014.39 1014.59 1014.83 1015.35 1016.27 1016.71 1016.59 1016.79 1016.87 1016.91 1017.07 1017.31 1017.11 1017.35 1017.67 1017.67 1017.91 1018.07 1018.23 1018.39 1018.47 1018.51 1018.55 1018.59 1018.63 1018.75 1018.83 1018.87 1018.87 1018.99 1019.03 1019.47 1019.75 1019.79 1019.55 1019.51 1019.75 1019.87 1019.83 1019.87 1019.95 1019.55 1019.15 1018.79 1018.39
1013.27 1013.27 1013.23 1013.19 1013.23 1013.15 1013.07 1013.11 1013.07 1013.03 1012.99 1012.99 1013.07 1013.27 1013.51 1013.71 1013.83 1013.91 1014.03 1014.23 1014.67 1015.83 1016.23 1016.91 1016.95 1017.07 1017.11 1017.23 1017.47 1017.67 1017.27 1017.43 1017.71 1017.83 1017.91 1018.03 1018.15 1018.27 1018.39 1018.47 1018.55 1018.59 1018.59 1018.63 1018.63 1018.75 1018.91 1018.99 1019.15 1019.31 1019.39 1019.39 1019.35 1019.15 1018.83 1018.71 1018.87 1019.07 1019.23 1019.19 1018.83 1018.35 1018.07
1013.31 1013.27 1013.19 1013.15 1013.15 1013.11 1013.03 1012.95 1013.03 1013.03 1012.99 1012.83 1012.79 1012.83 1012.99 1013.31 1013.59 1013.67 1013.67 1013.95 1014.63 1015.63 1016.55 1017.31 1017.27 1017.31 1017.39 1017.55 1017.79 1017.75 1017.35 1017.59 1017.75 1017.75 1017.79 1017.87 1018.03 1018.11 1018.19 1018.27 1018.31 1018.39 1018.39 1018.43 1018.55 1019.03 1019.15 1019.27 1019.35 1019.39 1019.39 1019.35 1019.19 1018.99 1018.67 1018.43 1018.31 1018.27 1018.11 1017.87 1017.71 1017.55 1017.43
1013.27 1013.23 1013.19 1013.19 1013.11 1013.03 1012.95 1012.83 1012.79 1012.71 1012.83 1012.87 1012.83 1012.83 1012.87 1012.95 1013.07 1013.31 1013.55 1013.91 1014.63 1015.59 1016.63 1017.55 1017.47 1017.47 1017.63 1017.87 1017.95 1017.55 1017.43 1017.47 1017.51 1017.63 1017.71 1017.75 1017.83 1017.87 1017.95 1018.03 1018.07 1018.07 1018.15 1018.19 1018.63 1019.15 1019.35 1019.51 1019.35 1019.31 1019.27 1019.19 1019.03 1018.79 1018.39 1018.07 1017.91 1017.87 1017.83 1017.83 1017.75 1017.75 1017.63
1013.11 1013.07 1013.07 1013.07 1012.99 1012.91 1012.79 1012.63 1012.55 1012.51 1012.63 1012.71 1012.71 1012.71 1012.67 1012.67 1012.83 1013.15 1013.55 1013.99 1014.67 1015.79 1016.59 1017.51 1017.63 1017.59 1017.75 1017.87 1017.71 1017.35 1017.23 1017.11 1017.19 1017.27 1017.35 1017.47 1017.47 1017.51 1017.51 1017.75 1017.95 1018.03 1018.03 1018.19 1018.35 1018.87 1019.19 1019.31 1019.15 1019.11 1019.11 1019.03 1018.83 1018.47 1018.15 1017.95 1017.79 1017.63 1017.55 1017.43 1017.35 1017.27 1017.23
1012.95 1012.99 1012.99 1012.91 1012.87 1012.87 1012.71 1012.55 1012.35 1012.35 1012.39 1012.43 1012.47 1012.39 1012.43 1012.59 1012.83 1013.19 1013.59 1014.27 1015.03 1015.71 1016.59 1017.51 1017.79 1017.63 1017.79 1017.87 1017.87 1017.47 1017.15 1017.03 1017.07 1017.19 1017.19 1017.15 1017.15 1017.15 1017.19 1017.23 1017.63 1017.79 1017.79 1017.95 1018.51 1019.15 1019.51 1019.43 1019.07 1019.03 1018.99 1018.87 1018.67 1018.35 1018.03 1017.87 1017.87 1017.87 1017.67 1017.39 1017.11 1016.95 1016.83
1012.71 1012.75 1012.75 1012.71 1012.67 1012.67 1012.55 1012.39 1012.23 1012.23 1012.27 1012.27 1012.23 1012.23 1012.23 1012.59 1013.03 1013.47 1013.95 1014.51 1015.27 1015.83 1016.75 1017.55 1017.87 1017.75 1017.79 1017.99 1018.03 1017.87 1017.99 1017.87 1017.51 1017.31 1017.31 1017.23 1017.19 1017.15 1017.11 1017.19 1017.27 1018.11 1018.55 1018.99 1019.19 1019.39 1019.59 1019.79 1019.63 1019.31 1019.15 1018.91 1018.71 1018.27 1018.07 1017.87 1018.11 1018.35 1018.19 1018.15 1017.87 1017.67 1017.23
1012.39 1012.43 1012.47 1012.51 1012.47 1012.43 1012.35 1012.23 1012.07 1012.07 1012.15 1012.19 1012.23 1012.19 1012.43 1013.03 1013.47 1014.11 1014.59 1015.07 1015.43 1016.11 1016.51 1017.07 1018.07 1018.31 1018.15 1018.15 1018.39 1018.59 1018.31 1017.91 1017.63 1017.39 1017.31 1017.35 1017.23 1017.23 1017.15 1017.15 1017.71 1019.15 1019.11 1019.51 1019.71 1019.75 1019.95 1020.03 1020.15 1019.91 1019.55 1019.15 1018.75 1018.59 1018.91 1018.75 1018.39 1018.59 1018.27 1018.03 1017.83 1017.55 1017.27
1012.15 1012.19 1012.23 1012.31 1012.39 1012.31 1012.11 1012.03 1011.91 1011.87 1011.95 1012.07 1012.31 1012.59 1012.79 1013.59 1014.27 1014.63 1015.11 1015.55 1015.83 1015.95 1016.35 1016.95 1017.83 1018.47 1018.43 1018.51 1018.59 1018.75 1018.39 1017.95 1018.15 1017.95 1017.95 1017.67 1017.51 1017.35 1017.27 1017.35 1017.39 1019.23 1019.31 1019.55 1019.63 1019.75 1019.79 1019.83 1019.91 1019.79 1019.27 1019.15 1019.11 1019.19 1019.03 1018.83 1018.55 1018.31 1018.11 1017.91 1017.67 1017.39 1017.11
1012.03 1011.99 1012.03 1012.07 1012.15 1012.11 1011.99 1011.83 1011.75 1011.79 1012.15 1012.51 1012.87 1012.95 1013.07 1013.83 1014.43 1015.07 1015.47 1015.67 1015.87 1016.39 1016.83 1017.47 1017.91 1018.35 1018.67 1018.67 1018.83 1018.83 1018.95 1018.67 1018.75 1018.43 1018.07 1017.83 1017.75 1017.59 1017.39 1017.47 1017.47 1018.23 1018.47 1018.79 1019.03 1019.27 1019.35 1019.39 1019.27 1018.91 1018.83 1018.95 1018.99 1018.95 1018.95 1018.47 1018.19 1018.03 1017.87 1017.67 1017.51 1017.23 1016.95
1011.67 1011.63 1011.71 1011.83 1011.87 1011.87 1011.83 1011.71 1011.63 1011.79 1012.23 1012.71 1013.39 1013.67 1014.03 1014.31 1014.87 1015.19 1015.23 1015.35 1015.67 1016.19 1016.79 1017.43 1018.15 1018.39 1018.79 1018.95 1019.03 1019.07 1019.07 1018.91 1018.75 1018.43 1018.43 1018.23 1017.95 1017.79 1017.59 1017.55 1017.75 1018.19 1018.47 1018.67 1018.79 1018.79 1018.79 1018.75 1018.67 1018.63 1018.67 1018.67 1018.67 1018.67 1018.47 1017.99 1017.79 1017.63 1017.55 1017.39 1017.23 1016.95 1016.67
Thickness
5617 5615 5615 5615 5614 5613 5612 5611 5611 5610 5611 5611 5611 5611 5611 5611 5611 5611 5611 5612 5614 5615 5615 5614 5613 5613 5613 5613 5613 5613 5614 5613 5611 5610 5607 5607 5606 5605 5605 5605 5604 5603 5603 5602 5600 5595 5591 5595 5603 5607 5610 5614 5617 5620 5623 5626 5628 5630 5632 5632 5632 5634 5637
5616 5614 5613 5612 5611 5610 5608 5608 5608 5607 5607 5607 5607 5607 5607 5606 5606 5605 5606 5606 5607 5609 5610 5608 5607 5607 5606 5606 5606 5606 5606 5606 5606 5606 5606 5606 5606 5605 5604 5603 5603 5603 5601 5600 5599 5598 5596 5596 5600 5602 5606 5609 5612 5614 5618 5621 5624 5626 5628 5629 5631 5631 5632
5614 5613 5612 5609 5607 5607 5605 5604 5605 5604 5603 5603 5602 5602 5602 5601 5601 5601 5601 5601 5601 5602 5603 5602 5601 5600 5600 5599 5600 5600 5599 5600 5600 5601 5601 5602 5603 5603 5603 5603 5603 5602 5601 5598 5598 5600 5600 5600 5602 5603 5605 5607 5607 5610 5614 5616 5619 5623 5625 5626 5626 5628 5631
5612 5611 5608 5606 5605 5604 5603 5603 5603 5602 5602 5600 5599 5598 5598 5597 5597 5597 5597 5596 5596 5597 5597 5597 5597 5597 5596 5595 5595 5595 5594 5594 5595 5595 5595 5596 5597 5597 5598 5599 5599 5598 5598 5597 5597 5597 5597 5598 5600 5601 5605 5608 5608 5609 5613 5615 5617 5619 5620 5623 5625 5626 5630
5610 5609 5607 5605 5604 5603 5601 5601 5601 5600 5599 5597 5597 5595 5594 5594 5593 5593 5593 5593 5592 5592 5592 5593 5593 5594 5593 5593 5592 5592 5591 5591 5591 5591 5590 5589 5590 5590 5591 5593 5593 5593 5593 5593 5594 5594 5594 5594 5595 5597 5602 5606 5606 5607 5611 5612 5614 5617 5618 5621 5625 5627 5629
5609 5608 5606 5605 5605 5603 5602 5601 5599 5598 5596 5595 5594 5593 5592 5592 5591 5590 5590 5589 5589 5588 5588 5588 5588 5589 5589 5590 5589 5588 5588 5587 5587 5587 5585 5584 5585 5585 5585 5587 5589 5589 5589 5588 5589 5590 5590 5591 5591 5594 5598 5602 5601 5602 5607 5610 5612 5616 5620 5623 5626 5628 5631
5608 5607 5606 5605 5604 5604 5603 5601 5600 5598 5596 5594 5592 5591 5590 5590 5590 5589 5588 5587 5585 5584 5584 5584 5584 5584 5586 5586 5585 5585 5584 5584 5584 5583 5583 5582 5581 5581 5581 5582 5584 5584 5585 5586 5585 5587 5588 5588 5589 5589 5591 5595 5597 5599 5603 5608 5610 5613 5618 5624 5628 5630 5633
5609 5607 5607 5606 5604 5603 5603 5601 5600 5599 5596 5594 5592 5590 5589 5588 5588 5586 5586 5585 5584 5583 5582 5581 5581 5581 5582 5582 5581 5581 5581 5581 5580 5580 5579 5579 5578 5578 5579 5579 5581 5582 5582 5583 5583 5584 5585 5586 5586 5586 5586 5587 5591 5595 5599 5603 5605 5607 5613 5620 5626 5630 5631
5609 5608 5607 5606 5604 5603 5602 5600 5599 5599 5597 5595 5592 5589 5587 5586 5585 5584 5583 5583 5582 5581 5581 5580 5580 5579 5578 5578 5578 5577 5577 5578 5578 5577 5578 5577 5576 5576 5577 5576 5578 5579 5579 5579 5581 5581 5581 5582 5584 5585 5584 5584 5584 5588 5592 5597 5600 5603 5608 5612 5617 5624 5628
5609 5608 5607 5606 5604 5602 5601 5600 5598 5598 5597 5595 5593 5589 5586 5585 5584 5583 5582 5581 5581 5580 5579 5579 5578 5577 5576 5576 5575 5574 5574 5574 5575 5575 5575 5575 5575 5575 5575 5575 5576 5577 5577 5577 5578 5579 5579 5579 5581 5582 5583 5584 5583 5582 5585 5589 5593 5597 5602 5605 5607 5613 5619
5608 5607 5607 5605 5603 5601 5599 5599 5598 5597 5596 5595 5593 5589 5587 5585 5583 5582 5581 5580 5580 5579 5578 5578 5577 5576 5575 5575 5574 5573 5572 5572 5572 5573 5573 5573 5573 5573 5574 5573 5575 5576 5576 5575 5575 5576 5577 5577 5578 5580 5582 5584 5583 5581 5581 5582 5587 5592 5597 5600 5602 5606 5610
5606 5605 5605 5604 5602 5600 5598 5597 5596 5596 5595 5594 5592 5589 5587 5585 5583 5582 5581 5580 5579 5578 5577 5577 5575 5575 5575 5573 5573 5572 5571 5571 5571 5571 5570 5571 5571 5571 5571 5571 5573 5574 5574 5574 5575 5575 5576 5576 5576 5577 5579 5581 5581 5581 5580 5578 5581 5587 5592 5594 5597 5600 5602
5603 5601 5601 5600 5600 5597 5595 5595 5595 5594 5594 5593 5592 5590 5588 5586 5584 5583 5582 5580 5579 5577 5576 5575 5574 5574 5573 5572 5572 5571 5570 5570 5570 5569 5569 5569 5569 5569 5570 5570 5570 5571 5571 5572 5574 5575 5575 5575 5575 5575 5576 5576 5577 5577 5578 5577 5577 5581 5587 5589 5591 5594 5597
5600 5597 5596 5595 5595 5594 5593 5592 5593 5593 5593 5592 5591 5589 5588 5587 5586 5583 5582 5581 5579 5577 5576 5575 5574 5574 5572 5571 5571 5570 5569 5568 5568 5568 5568 5567 5567 5567 5567 5568 5568 5568 5568 5569 5571 5572 5574 5574 5574 5575 5575 5575 5576 5575 5576 5576 5575 5578 5582 5585 5587 5589 5592
5596 5594 5592 5591 5591 5589 5588 5589 5589 5591 5591 5590 5590 5588 5587 5587 5586 5585 5583 5581 5579 5578 5577 5575 5574 5573 5572 5570 5570 5568 5567 5566 5566 5566 5565 5565 5565 5564 5563 5565 5565 5565 5564 5564 5565 5568 5571 5572 5573 5574 5575 5575 5574 5574 5574 5573 5573 5575 5576 5580 5583 5585 5588
5591 5590 5590 5590 5587 5583 5583 5585 5586 5587 5589 5589 5589 5587 5586 5586 5584 5584 5584 5582 5580 5579 5577 5576 5574 5573 5572 5570 5568 5567 5565 5565 5564 5562 5562 5562 5563 5562 5560 5560 5561 5561 5560 5560 5561 5563 5565 5567 5568 5570 5572 5571 5571 5571 5572 5571 5571 5571 5572 5574 5577 5580 5584
5588 5587 5586 5586 5586 5582 5580 5582 5582 5582 5584 5586 5586 5584 5584 5584 5583 5583 5583 5582 5581 5580 5578 5577 5574 5573 5571 5569 5567 5565 5563 5563 5561 5560 5560 5559 5560 5559 5558 5557 5557 5558 5557 5556 5556 5558 5560 5561 5562 5564 5565 5567 5568 5568 5569 5569 5569 5569 5570 5571 5573 5576 5579
5582 5581 5580 5579 5581 5581 5581 5582 5581 5579 5579 5581 5583 5582 5582 5581 5581 5582 5582 5583 5582 5580 5579 5577 5574 5572 5570 5567 5566 5564 5562 5560 5559 5557 5556 5556 5555 5555 5554 5553 5554 5554 5553 5553 5553 5554 5555 5555 5556 5557 5559 5561 5563 5565 5566 5566 5566 5567 5568 5569 5570 5573 5574
5577 5577 5575 5572 5572 5574 5578 5579 5579 5578 5578 5578 5579 5579 5579 5580 5580 5581 5582 5582 5582 5580 5578 5575 5572 5570 5567 5565 5563 5561 5560 5559 5557 5555 5553 5552 5551 5550 5549 5549 5549 5549 5548 5548 5549 5549 5550 5550 5550 5551 5552 5554 5556 5559 5560 5560 5562 5563 5564 5566 5568 5569 5571
5574 5575 5575 5573 5573 5574 5576 5577 5577 5577 5576 5575 5576 5577 5578 5577 5578 5579 5579 5580 5580 5579 5576 5574 5571 5568 5566 5563 5560 5558 5556 5555 5554 5553 5551 5549 5548 5546 5545 5545 5545 5544 5544 5543 5544 5544 5544 5544 5544 5546 5546 5548 5550 5552 5554 5556 5557 5559 5560 5563 5565 5567 5569
5572 5572 5573 5574 5575 5575 5575 5574 5574 5574 5573 5572 5573 5576 5576 5575 5574 5574 5575 5576 5577 5576 5574 5572 5570 5567 5564 5560 5557 5554 5552 5550 5550 5549 5547 5546 5545 5543 5541 5541 5540 5540 5539 5538 5537 5537 5536 5536 5538 5539 5540 5541 5543 5545 5547 5550 5552 5554 5556 5559 5561 5564 5566
5568 5568 5568 5569 5570 5570 5571 5572 5572 5571 5570 5570 5571 5572 5573 5572 5570 5568 5571 5574 5574 5572 5571 5570 5569 5565 5561 5557 5553 5550 5548 5546 5545 5544 5543 5542 5541 5539 5538 5537 5537 5536 5534 5531 5530 5529 5528 5528 5529 5531 5533 5535 5536 5537 5540 5543 5546 5549 5551 5554 5557 5560 5562
5565 5565 5564 5565 5565 5567 5568 5568 5569 5569 5568 5568 5568 5567 5568 5567 5565 5564 5568 5571 5570 5569 5568 5565 5564 5562 5558 5554 5551 5548 5545 5542 5540 5539 5539 5538 5537 5536 5535 5534 5533 5531 5528 5526 5524 5523 5522 5522 5523 5524 5525 5526 5527 5529 5531 5534 5537 5541 5544 5548 5551 5553 5556
5561 5561 5561 5561 5562 5564 5564 5564 5565 5565 5566 5566 5565 5564 5563 5563 5562 5562 5563 5563 5562 5562 5561 5558 5556 5556 5553 5550 5548 5545 5542 5538 5536 5534 5533 5533 5532 5532 5531 5530 5530 5528 5525 5523 5521 5519 5518 5517 5518 5518 5519 5519 5519 5519 5521 5524 5528 5531 5534 5538 5543 5545 5548
5555 5555 5556 5556 5557 5558 5558 5558 5558 5558 5561 5561 5561 5561 5559 5559 5560 5557 5555 5555 5553 5553 5551 5548 5547 5547 5546 5545 5543 5540 5537 5533 5532 5530 5529 5528 5528 5528 5527 5527 5526 5525 5523 5521 5520 5518 5517 5515 5515 5514 5514 5514 5513 5514 5514 5516 5519 5522 5525 5529 5533 5537 5539
5550 5550 5551 5551 5552 5552 5551 5551 5551 5552 5553 5554 5555 5556 5554 5554 5553 5550 5548 5548 5546 5545 5542 5539 5538 5539 5538 5538 5536 5535 5532 5530 5528 5526 5525 5524 5523 5523 5522 5521 5521 5520 5519 5519 5517 5516 5516 5515 5513 5511 5510 5509 5510 5511 5511 5511 5512 5514 5517 5520 5524 5528 5530
5543 5544 5545 5545 5546 5546 5545 5545 5546 5546 5547 5547 5548 5548 5547 5547 5546 5544 5543 5541 5538 5537 5534 5531 5530 5529 5529 5530 5529 5527 5526 5526 5524 5522 5520 5519 5518 5517 5516 5515 5515 5515 5514 5514 5513 5513 5513 5512 5510 5508 5507 5507 5509 5509 5510 5510 5509 5509 5509 5512 5516 5520 5522
5536 5537 5538 5538 5539 5539 5540 5540 5540 5541 5542 5542 5543 5543 5542 5541 5540 5539 5539 5536 5532 5530 5526 5522 5521 5521 5521 5521 5519 5518 5520 5520 5517 5515 5514 5513 5512 5511 5510 5509 5509 5508 5508 5508 5508 5508 5507 5506 5504 5503 5502 5503 5504 5505 5507 5509 5508 5508 5508 5509 5511 5515 5517
5528 5530 5530 5531 5532 5532 5533 5535 5535 5535 5536 5537 5538 5538 5537 5536 5534 5533 5534 5531 5526 5523 5518 5512 5511 5513 5512 5511 5511 5511 5512 5511 5509 5509 5508 5507 5506 5506 5505 5505 5504 5503 5503 5502 5501 5500 5499 5497 5496 5495 5496 5497 5498 5500 5503 5504 5505 5505 5506 5507 5509 5511 5513
5522 5523 5523 5524 5525 5525 5527 5529 5530 5530 5531 5531 5532 5532 5531 5531 5528 5527 5527 5524 5519 5517 5510 5502 5502 5504 5504 5503 5503 5503 5504 5504 5503 5503 5503 5502 5501 5500 5500 5499 5498 5497 5497 5496 5494 5492 5490 5489 5488 5488 5489 5490 5492 5495 5497 5499 5499 5500 5501 5503 5504 5505 5507
5516 5517 5517 5517 5518 5519 5521 5522 5524 5525 5525 5525 5526 5526 5525 5525 5523 5521 5519 5516 5512 5510 5502 5495 5495 5497 5495 5496 5496 5497 5498 5498 5498 5498 5497 5497 5496 5495 5495 5494 5492 5492 5491 5490 5488 5486 5484 5482 5482 5482 5483 5484 5486 5489 5491 5492 5493 5494 5496 5498 5500 5501 5502
5510 5510 5511 5512 5512 5513 5515 5516 5518 5520 5520 5519 5520 5520 5520 5519 5516 5514 5513 5508 5505 5501 5494 5488 5489 5490 5489 5488 5489 5490 5490 5490 5491 5492 5491 5491 5491 5490 5490 5489 5487 5486 5486 5483 5479 5477 5474 5474 5475 5476 5475 5476 5479 5481 5483 5485 5485 5485 5487 5489 5491 5493 5495
5505 5505 5506 5507 5507 5508 5508 5510 5512 5513 5513 5514 5514 5514 5515 5512 5508 5506 5505 5500 5496 5492 5488 5483 5481 5482 5482 5481 5480 5480 5479 5479 5482 5483 5484 5484 5484 5483 5483 5482 5480 5478 5475 5472 5469 5467 5465 5464 5464 5465 5466 5467 5470 5472 5474 5475 5475 5474 5475 5478 5480 5482 5485
5499 5500 5501 5501 5502 5503 5504 5505 5506 5507 5508 5508 5508 5508 5506 5501 5498 5496 5494 5490 5487 5485 5483 5479 5474 5472 5473 5472 5470 5469 5470 5472 5475 5475 5475 5475 5475 5475 5475 5473 5470 5465 5462 5460 5459 5457 5457 5455 5454 5455 5456 5458 5460 5460 5461 5463 5464 5464 5466 5468 5470 5472 5476
5493 5495 5495 5496 5496 5497 5498 5500 5501 5502 5502 5501 5501 5500 5496 5491 5487 5486 5482 5479 5478 5479 5478 5473 5468 5465 5464 5464 5462 5461 5462 5465 5464 5464 5466 5467 5467 5467 5467 5465 5462 5458 5454 5452 5450 5450 5449 5448 5448 5449 5450 5450 5450 5449 5449 5452 5455 5457 5458 5460 5462 5464 5467
5488 5489 5490 5490 5490 5491 5492 5495 5496 5496 5495 5492 5491 5490 5487 5482 5478 5476 5474 5472 5471 5471 5468 5464 5461 5458 5456 5455 5455 5454 5454 5455 5455 5456 5458 5459 5459 5459 5459 5459 5457 5453 5450 5448 5446 5445 5444 5443 5443 5445 5445 5444 5443 5442 5442 5444 5447 5448 5450 5451 5453 5456 5458
5484 5485 5486 5486 5485 5486 5487 5489 5490 5489 5486 5483 5480 5477 5474 5471 5470 5468 5467 5466 5465 5464 5461 5456 5452 5451 5449 5447 5447 5446 5447 5448 5448 5448 5449 5450 5452 5452 5452 5451 5449 5446 5443 5441 5440 5440 5439 5438 5439 5439 5438 5437 5436 5435 5436 5439 5440 5441 5442 5444 5445 5448 5450